TimeEST,TemperatureF,Dew PointF,Humidity,Sea Level PressureIn,VisibilityMPH,Wind Direction,Wind SpeedMPH,Gust SpeedMPH,PrecipitationIn,Events,Conditions,WindDirDegrees,DateUTC
12:14 AM,28.4,23.0,80,30.18,10.0,NNW,6.9,-,N/A,,Mostly Cloudy,330,2013-12-10 05:14:00
12:33 AM,28.4,23.0,80,30.20,10.0,NNW,6.9,-,N/A,,Mostly Cloudy,330,2013-12-10 05:33:00
12:54 AM,28.4,23.0,80,30.20,10.0,NNW,5.8,-,N/A,,Overcast,340,2013-12-10 05:54:00
1:14 AM,28.4,21.2,74,30.19,10.0,NNW,6.9,-,N/A,,Mostly Cloudy,330,2013-12-10 06:14:00
1:33 AM,28.4,19.4,69,30.19,10.0,NW,6.9,-,N/A,,Overcast,320,2013-12-10 06:33:00
1:54 AM,28.4,19.4,69,30.18,10.0,NW,4.6,-,N/A,,Overcast,320,2013-12-10 06:54:00
2:14 AM,26.6,19.4,74,30.15,10.0,NNW,5.8,-,N/A,,Overcast,330,2013-12-10 07:14:00
2:33 AM,26.6,21.2,80,30.13,10.0,North,5.8,-,N/A,,Overcast,10,2013-12-10 07:33:00
2:54 AM,26.6,21.2,80,30.16,4.0,North,4.6,-,N/A,Snow,Light Snow,350,2013-12-10 07:54:00
3:14 AM,26.6,21.2,80,30.17,2.5,NNW,6.9,-,N/A,Snow,Light Snow,340,2013-12-10 08:14:00
3:33 AM,24.8,23.0,93,30.18,4.0,NNW,5.8,-,N/A,Snow,Light Snow,330,2013-12-10 08:33:00
3:54 AM,24.8,23.0,93,30.18,5.0,NW,4.6,-,N/A,Snow,Light Snow,310,2013-12-10 08:54:00
4:14 AM,24.8,21.2,86,30.18,5.0,Calm,Calm,-,N/A,Snow,Light Snow,0,2013-12-10 09:14:00
4:33 AM,24.8,21.2,86,30.16,5.0,NNW,3.5,-,N/A,Snow,Light Snow,340,2013-12-10 09:33:00
4:54 AM,24.8,21.2,86,30.14,2.0,North,5.8,-,N/A,Snow,Light Snow,10,2013-12-10 09:54:00
5:14 AM,23.0,23.0,100,30.15,1.2,North,6.9,-,N/A,Snow,Light Snow,350,2013-12-10 10:14:00
5:33 AM,23.0,21.2,93,30.14,3.0,North,4.6,-,0.01,Snow,Light Snow,350,2013-12-10 10:33:00
5:54 AM,23.0,23.0,100,30.14,2.5,NNW,3.5,-,0.01,Snow,Light Snow,340,2013-12-10 10:54:00
6:14 AM,23.0,21.2,93,30.15,3.0,NW,4.6,-,N/A,Snow,Light Snow,310,2013-12-10 11:14:00
6:33 AM,23.0,21.2,93,30.15,2.0,NW,4.6,-,N/A,Snow,Light Snow,320,2013-12-10 11:33:00
6:54 AM,23.0,21.2,93,30.16,2.0,West,3.5,-,N/A,Snow,Light Snow,280,2013-12-10 11:54:00
7:14 AM,23.0,21.2,93,30.17,2.0,WNW,3.5,-,N/A,Snow,Light Snow,290,2013-12-10 12:14:00
7:33 AM,23.0,21.2,93,30.17,1.8,West,4.6,-,N/A,Snow,Light Snow,270,2013-12-10 12:33:00
7:54 AM,23.0,21.2,93,30.18,2.5,West,3.5,-,N/A,Snow,Light Snow,280,2013-12-10 12:54:00
8:14 AM,23.0,21.2,93,30.18,1.8,WSW,3.5,-,N/A,Snow,Light Snow,250,2013-12-10 13:14:00
8:33 AM,23.0,21.2,93,30.20,2.5,WNW,5.8,-,N/A,Snow,Light Snow,290,2013-12-10 13:33:00
8:54 AM,23.0,21.2,93,30.20,3.0,WNW,4.6,-,N/A,Snow,Light Snow,300,2013-12-10 13:54:00
9:14 AM,23.0,21.2,93,30.20,5.0,West,5.8,-,N/A,,Overcast,280,2013-12-10 14:14:00
9:33 AM,24.8,21.2,86,30.22,10.0,West,9.2,-,N/A,,Overcast,280,2013-12-10 14:33:00
9:54 AM,24.8,21.2,86,30.21,10.0,West,8.1,-,N/A,,Overcast,270,2013-12-10 14:54:00
10:14 AM,24.8,21.2,86,30.22,7.0,West,6.9,-,N/A,,Overcast,260,2013-12-10 15:14:00
10:34 AM,24.8,19.4,80,30.23,10.0,West,13.8,17.3,N/A,,Mostly Cloudy,270,2013-12-10 15:34:00
10:54 AM,26.6,19.4,74,30.23,10.0,West,11.5,-,N/A,,Overcast,270,2013-12-10 15:54:00
11:14 AM,26.6,19.4,74,30.23,10.0,West,11.5,17.3,N/A,,Mostly Cloudy,270,2013-12-10 16:14:00
11:34 AM,26.6,19.4,74,30.23,10.0,WSW,13.8,-,N/A,,Scattered Clouds,250,2013-12-10 16:34:00
11:54 AM,26.6,19.4,74,30.23,10.0,West,9.2,18.4,N/A,,Mostly Cloudy,260,2013-12-10 16:54:00
12:14 PM,26.6,19.4,74,30.21,10.0,SW,12.7,-,N/A,,Mostly Cloudy,230,2013-12-10 17:14:00
12:34 PM,28.4,19.4,69,30.20,10.0,SW,10.4,17.3,N/A,,Scattered Clouds,220,2013-12-10 17:34:00
12:54 PM,28.4,19.4,69,30.19,10.0,SW,12.7,18.4,N/A,,Clear,220,2013-12-10 17:54:00
1:14 PM,28.4,19.4,69,30.18,10.0,SW,11.5,21.9,N/A,,Clear,230,2013-12-10 18:14:00
1:34 PM,30.2,19.4,64,30.16,10.0,SW,15.0,20.7,N/A,,Clear,230,2013-12-10 18:34:00
1:54 PM,30.2,19.4,64,30.17,10.0,WSW,13.8,17.3,N/A,,Clear,240,2013-12-10 18:54:00
2:14 PM,30.2,19.4,64,30.17,10.0,WSW,10.4,18.4,N/A,,Clear,240,2013-12-10 19:14:00
2:34 PM,30.2,19.4,64,30.17,10.0,WSW,15.0,21.9,N/A,,Clear,240,2013-12-10 19:34:00
2:54 PM,32.0,19.4,60,30.18,7.0,WSW,16.1,24.2,N/A,,Clear,250,2013-12-10 19:54:00
3:14 PM,32.0,19.4,60,30.18,10.0,WSW,17.3,25.3,N/A,,Clear,240,2013-12-10 20:14:00
3:34 PM,32.0,19.4,60,30.18,10.0,WSW,12.7,19.6,N/A,,Clear,240,2013-12-10 20:34:00
3:54 PM,32.0,19.4,60,30.18,10.0,WSW,10.4,21.9,N/A,,Clear,240,2013-12-10 20:54:00
4:14 PM,32.0,17.6,55,30.18,10.0,WSW,12.7,23.0,N/A,,Clear,240,2013-12-10 21:14:00
4:34 PM,32.0,19.4,60,30.20,10.0,WSW,11.5,20.7,N/A,,Clear,250,2013-12-10 21:34:00
4:54 PM,30.2,19.4,64,30.21,10.0,WSW,10.4,-,N/A,,Clear,250,2013-12-10 21:54:00
5:14 PM,30.2,19.4,64,30.22,10.0,WSW,10.4,16.1,N/A,,Clear,240,2013-12-10 22:14:00
5:34 PM,30.2,19.4,64,30.23,10.0,WSW,8.1,-,N/A,,Clear,240,2013-12-10 22:34:00
5:54 PM,28.4,19.4,69,30.23,10.0,WSW,8.1,-,N/A,,Clear,240,2013-12-10 22:54:00
6:13 PM,28.4,19.4,69,30.24,10.0,WSW,8.1,-,N/A,,Clear,250,2013-12-10 23:13:00
6:34 PM,28.4,19.4,69,30.25,10.0,WSW,8.1,-,N/A,,Clear,240,2013-12-10 23:34:00
6:54 PM,28.4,19.4,69,30.26,10.0,WSW,8.1,-,N/A,,Clear,240,2013-12-10 23:54:00
7:13 PM,28.4,19.4,69,30.26,10.0,WSW,9.2,-,N/A,,Clear,250,2013-12-11 00:13:00
7:34 PM,28.4,19.4,69,30.27,10.0,WSW,8.1,-,N/A,,Clear,250,2013-12-11 00:34:00
7:54 PM,26.6,19.4,74,30.27,10.0,WSW,8.1,-,N/A,,Clear,250,2013-12-11 00:54:00
8:13 PM,26.6,17.6,69,30.28,10.0,WSW,8.1,-,N/A,,Clear,250,2013-12-11 01:13:00
8:34 PM,26.6,19.4,74,30.27,10.0,WSW,5.8,-,N/A,,Clear,240,2013-12-11 01:34:00
8:54 PM,26.6,17.6,69,30.27,10.0,SW,4.6,-,N/A,,Clear,230,2013-12-11 01:54:00
9:14 PM,24.8,17.6,74,30.29,10.0,SW,3.5,-,N/A,,Clear,230,2013-12-11 02:14:00
9:34 PM,24.8,17.6,74,30.29,10.0,WSW,4.6,-,N/A,,Clear,240,2013-12-11 02:34:00
9:54 PM,24.8,17.6,74,30.29,10.0,WSW,6.9,-,N/A,,Clear,250,2013-12-11 02:54:00
10:14 PM,24.8,17.6,74,30.31,10.0,WSW,6.9,-,N/A,,Clear,240,2013-12-11 03:14:00
10:34 PM,23.0,17.6,80,30.31,10.0,SW,4.6,-,N/A,,Clear,230,2013-12-11 03:34:00
10:54 PM,23.0,17.6,80,30.32,10.0,SW,4.6,-,N/A,,Clear,230,2013-12-11 03:54:00
11:14 PM,23.0,17.6,80,30.33,10.0,WSW,5.8,-,N/A,,Clear,240,2013-12-11 04:14:00
11:34 PM,21.2,17.6,86,30.34,10.0,West,6.9,-,N/A,,Clear,260,2013-12-11 04:34:00
11:54 PM,23.0,17.6,80,30.35,10.0,West,5.8,-,N/A,,Clear,260,2013-12-11 04:54:00